EW5612 Weather Reports


Display with metric or nautical units.
time (UTC)temp
F
wind
direction
speed
MPH
gust
MPH
rain 1hr
in
rain 24hr
in
rain mn
in
humidity
%
barometer
mb
20260508221703 80 75 0.0 1.0 0.00 0.00 0.00 78 1007.9
20260508221203 80 75 0.0 0.0 0.00 0.00 0.00 77 1008.0
20260508220703 80 121 0.0 0.0 0.00 0.00 0.00 76 1008.0
20260508220204 80 121 0.0 0.0 0.00 0.00 0.00 76 1008.0
20260508214203 80 131 0.0 0.0 0.00 0.00 0.00 78 1008.1
20260508213703 80 131 0.0 0.0 0.00 0.00 0.00 77 1008.3
20260508213204 80 131 0.0 2.0 0.00 0.00 0.00 76 1008.3
20260508212703 80 131 0.0 0.0 0.00 0.00 0.00 77 1008.4
20260508212203 80 131 0.0 0.0 0.00 0.00 0.00 75 1008.4
20260508211704 80 131 0.0 0.0 0.00 0.00 0.00 77 1008.3
20260508211203 80 131 0.0 0.0 0.00 0.00 0.00 75 1008.4
20260508210203 81 132 0.0 0.0 0.00 0.00 0.00 75 1008.7
20260508205704 80 129 0.0 0.0 0.00 0.00 0.00 76 1008.7
20260508205203 80 129 0.0 1.0 0.00 0.00 0.00 75 1008.8
20260508204704 80 123 1.0 3.0 0.00 0.00 0.00 75 1008.9
20260508203703 80 109 0.0 0.0 0.00 0.00 0.00 76 1008.9
20260508203203 80 108 0.0 0.0 0.00 0.00 0.00 75 1009.1
20260508202203 80 111 0.0 0.0 0.00 0.00 0.00 75 1009.2
20260508201703 80 183 0.0 0.0 0.00 0.00 0.00 74 1009.4
20260508201203 80 182 0.0 0.0 0.00 0.00 0.00 73 1009.5
20260508200703 80 193 0.0 0.0 0.00 0.00 0.00 74 1009.5
20260508200204 80 100 0.0 0.0 0.00 0.00 0.00 74 1009.6
20260508195704 80 96 0.0 0.0 0.00 0.00 0.00 74 1009.5
20260508195203 80 96 0.0 0.0 0.00 0.00 0.00 74 1009.6
20260508194703 80 96 0.0 0.0 0.00 0.00 0.00 73 1009.5
20260508194204 79 186 0.0 0.0 0.00 0.00 0.00 75 1009.7
20260508193704 79 187 0.0 0.0 0.00 0.00 0.00 75 1009.7
20260508193203 79 130 0.0 0.0 0.00 0.00 0.00 76 1009.9
20260508192204 78 81 0.0 0.0 0.00 0.00 0.00 77 1009.9
20260508191704 77 82 0.0 0.0 0.00 0.00 0.00 77 1010.0
20260508191203 77 82 0.0 0.0 0.00 0.00 0.00 78 1010.0
20260508190703 77 70 0.0 2.0 0.00 0.00 0.00 77 1010.1
20260508185704 76 77 1.0 3.0 0.00 0.00 0.00 78 1010.2
20260508185204 76 72 0.0 2.0 0.00 0.00 0.00 79 1010.3
20260508184203 74 195 0.0 2.0 0.00 0.00 0.00 80 1010.4
20260508183704 74 175 0.0 1.0 0.00 0.00 0.00 81 1010.6
20260508182704 73 96 0.0 0.0 0.00 0.00 0.00 80 1010.9
20260508182204 73 96 0.0 0.0 0.00 0.00 0.00 80 1011.0
20260508181704 73 96 0.0 0.0 0.00 0.00 0.00 80 1011.1
20260508180703 73 96 0.0 0.0 0.00 0.00 0.00 79 1011.3
20260508180204 73 96 0.0 0.0 0.00 0.00 0.00 79 1011.3
20260508175703 73 96 0.0 0.0 0.00 0.00 0.00 79 1011.2
20260508174703 74 96 0.0 0.0 0.00 0.00 0.00 80 1011.2
20260508174204 74 96 0.0 0.0 0.00 0.00 0.00 79 1011.3
20260508173704 74 96 0.0 0.0 0.00 0.00 0.00 79 1011.4
20260508173204 74 96 0.0 0.0 0.00 0.00 0.00 80 1011.5
20260508172703 73 96 0.0 0.0 0.00 0.00 0.00 79 1011.5
20260508172204 73 96 0.0 0.0 0.00 0.00 0.00 79 1011.4
20260508171704 73 96 0.0 0.0 0.00 0.00 0.00 78 1011.4
20260508171204 73 96 0.0 0.0 0.00 0.00 0.00 78 1011.4
20260508170203 73 99 0.0 0.0 0.00 0.00 0.00 78 1011.4
20260508165703 73 94 0.0 0.0 0.00 0.00 0.00 79 1011.6
20260508165204 72 30 0.0 0.0 0.00 0.00 0.00 80 1011.6
20260508163704 71 36 0.0 0.0 0.00 0.00 0.00 82 1011.9
20260508163204 71 37 0.0 0.0 0.00 0.00 0.00 81 1011.9
20260508162704 71 37 0.0 0.0 0.00 0.00 0.00 81 1011.8
20260508162203 70 39 0.0 0.0 0.00 0.00 0.00 82 1012.1
20260508161703 70 40 0.0 0.0 0.00 0.00 0.00 81 1012.1
20260508160703 69 38 0.0 0.0 0.00 0.00 0.00 83 1012.2
20260508160204 69 38 0.0 0.0 0.00 0.00 0.00 83 1012.3
20260508155704 69 38 0.0 0.0 0.00 0.00 0.00 83 1012.3
20260508155204 69 38 0.0 0.0 0.00 0.00 0.00 82 1012.4
20260508154703 68 39 0.0 0.0 0.00 0.00 0.00 82 1012.4
20260508153703 68 37 0.0 0.0 0.00 0.00 0.00 82 1012.4
20260508153204 68 37 0.0 0.0 0.00 0.00 0.00 82 1012.5
20260508152704 68 37 0.0 0.0 0.00 0.00 0.00 83 1012.6
20260508152203 67 35 0.0 0.0 0.00 0.00 0.00 83 1012.6
20260508151704 67 35 0.0 0.0 0.00 0.00 0.00 83 1012.5
20260508150703 67 35 0.0 0.0 0.00 0.00 0.00 84 1012.6
20260508150204 66 34 0.0 0.0 0.00 0.00 0.00 84 1012.7
20260508145704 66 35 0.0 0.0 0.00 0.00 0.00 84 1012.7
20260508145204 66 35 0.0 0.0 0.00 0.00 0.00 84 1012.8
20260508144703 66 35 0.0 0.0 0.00 0.00 0.00 85 1012.9
20260508143704 65 13 0.0 0.0 0.00 0.00 0.00 85 1012.8
20260508143204 65 10 0.0 0.0 0.00 0.00 0.00 85 1012.7
20260508142704 65 0 0.0 0.0 0.00 0.00 0.00 85 1012.9
20260508142204 65 15 0.0 0.0 0.00 0.00 0.00 85 1012.9
20260508141704 65 66 0.0 0.0 0.00 0.00 0.00 85 1012.9
20260508141204 64 68 0.0 0.0 0.00 0.00 0.00 85 1013.0
20260508140704 64 0 0.0 1.0 0.00 0.00 0.00 85 1013.1
20260508140203 64 319 0.0 0.0 0.00 0.00 0.00 86 1013.0
20260508135703 64 40 0.0 0.0 0.00 0.00 0.00 87 1013.1
20260508135204 64 49 0.0 0.0 0.00 0.00 0.00 87 1013.1
20260508134203 63 48 0.0 0.0 0.00 0.00 0.00 87 1013.4
20260508133704 63 48 0.0 0.0 0.00 0.00 0.00 87 1013.4
20260508132703 63 52 0.0 0.0 0.00 0.00 0.00 87 1013.5
20260508132203 63 52 0.0 0.0 0.00 0.00 0.00 87 1013.6
20260508131704 63 56 0.0 0.0 0.00 0.00 0.00 87 1013.6
20260508130203 63 51 0.0 0.0 0.00 0.00 0.00 88 1013.0
20260508125703 62 28 0.0 0.0 0.00 0.00 0.00 88 1013.0
20260508125203 62 47 0.0 0.0 0.00 0.00 0.00 88 1013.0
20260508124703 62 299 0.0 1.0 0.00 0.00 0.00 88 1012.9
20260508124204 62 298 0.0 1.0 0.00 0.00 0.00 88 1013.0
20260508123705 62 0 0.0 0.0 0.00 0.00 0.00 88 1012.9
20260508123203 62 56 0.0 0.0 0.00 0.00 0.00 88 1013.0
20260508122704 62 329 0.0 0.0 0.00 0.00 0.00 88 1013.2
20260508122203 62 319 0.0 0.0 0.00 0.00 0.00 88 1013.2
20260508121703 62 318 0.0 0.0 0.00 0.00 0.00 88 1013.1
20260508121204 62 317 0.0 0.0 0.00 0.00 0.00 87 1013.2
20260508120703 62 317 0.0 0.0 0.00 0.00 0.00 87 1013.4
20260508120203 62 51 0.0 0.0 0.00 0.00 0.00 87 1013.4
20260508115704 62 51 0.0 1.0 0.00 0.00 0.00 87 1013.5
20260508115203 62 86 0.0 0.0 0.00 0.00 0.00 87 1013.5
20260508114204 62 97 0.0 0.0 0.00 0.00 0.00 87 1013.8
20260508112704 62 32 0.0 0.0 0.00 0.00 0.00 87 1013.6
20260508112203 62 33 0.0 0.0 0.00 0.00 0.00 87 1013.6
20260508111704 62 37 0.0 1.0 0.00 0.00 0.00 86 1013.4
20260508111204 62 321 0.0 0.0 0.00 0.00 0.00 86 1013.3
20260508110703 62 23 0.0 0.0 0.00 0.00 0.00 86 1013.2
20260508110204 62 28 0.0 0.0 0.00 0.00 0.00 86 1013.4
20260508105704 62 29 0.0 0.0 0.00 0.00 0.00 86 1013.6
20260508105204 62 27 0.0 0.0 0.00 0.00 0.00 86 1013.6
20260508104704 62 264 0.0 0.0 0.00 0.00 0.00 86 1013.6
20260508104203 62 264 0.0 0.0 0.00 0.00 0.00 86 1013.5
20260508103704 62 273 0.0 0.0 0.00 0.00 0.00 86 1013.6
20260508103203 62 23 0.0 0.0 0.00 0.00 0.00 86 1013.5
20260508102704 62 319 0.0 0.0 0.00 0.00 0.00 86 1013.4
20260508102203 62 293 0.0 0.0 0.00 0.00 0.00 86 1013.4
20260508101703 62 293 0.0 0.0 0.00 0.00 0.00 86 1013.3
20260508100704 62 297 0.0 0.0 0.00 0.00 0.00 86 1013.4
20260508100204 62 297 0.0 0.0 0.00 0.00 0.00 86 1013.3
20260508095203 62 0 0.0 0.0 0.00 0.00 0.00 86 1013.4
20260508094704 62 0 0.0 0.0 0.00 0.00 0.00 86 1013.3
20260508094203 62 355 0.0 0.0 0.00 0.00 0.00 86 1013.4
20260508093704 62 355 0.0 0.0 0.00 0.00 0.00 85 1013.6
20260508093203 63 355 0.0 0.0 0.00 0.00 0.00 85 1013.4
20260508092704 63 355 0.0 0.0 0.00 0.00 0.00 85 1013.3
20260508091704 63 355 0.0 0.0 0.00 0.00 0.00 85 1013.4
20260508091203 63 355 0.0 0.0 0.00 0.00 0.00 85 1013.4
20260508090703 63 355 0.0 0.0 0.00 0.00 0.00 84 1013.2
20260508085703 63 355 0.0 0.0 0.00 0.00 0.00 84 1013.2
20260508085203 63 355 0.0 0.0 0.00 0.00 0.00 84 1013.3
20260508084704 63 66 0.0 0.0 0.00 0.00 0.00 84 1013.3
20260508083704 63 14 0.0 0.0 0.00 0.00 0.00 83 1013.5
20260508083203 63 16 0.0 0.0 0.00 0.00 0.00 84 1013.4
20260508082704 63 16 0.0 0.0 0.00 0.00 0.00 83 1013.4
20260508082204 63 0 0.0 0.0 0.00 0.00 0.00 83 1013.4
20260508081704 63 0 0.0 0.0 0.00 0.00 0.00 83 1013.5
20260508081204 63 0 0.0 0.0 0.00 0.00 0.00 83 1013.3
20260508075704 63 0 0.0 0.0 0.00 0.00 0.00 83 1013.4
20260508075204 63 0 0.0 0.0 0.00 0.00 0.00 83 1013.4
20260508074704 63 327 0.0 0.0 0.00 0.00 0.00 83 1013.5
20260508073704 63 326 0.0 0.0 0.00 0.00 0.00 83 1013.2
20260508073204 63 332 0.0 0.0 0.00 0.00 0.00 83 1013.2
20260508072704 63 331 0.0 0.0 0.00 0.00 0.00 83 1013.2
20260508072204 63 33 0.0 0.0 0.00 0.00 0.00 83 1013.3
20260508071704 63 33 0.0 0.0 0.00 0.00 0.00 83 1013.4
20260508071204 63 35 0.0 0.0 0.00 0.00 0.00 83 1013.6
20260508070704 63 23 0.0 0.0 0.00 0.00 0.00 83 1013.7
20260508070203 63 23 0.0 0.0 0.00 0.00 0.00 83 1013.7
20260508065704 63 23 0.0 0.0 0.00 0.00 0.00 84 1013.9
20260508065206 62 345 0.0 0.0 0.00 0.00 0.00 84 1013.9
20260508064703 62 345 0.0 0.0 0.00 0.00 0.00 84 1014.1
20260508064204 62 343 0.0 0.0 0.00 0.00 0.00 84 1014.3
20260508063203 62 343 0.0 0.0 0.00 0.00 0.00 84 1014.3
20260508062703 62 338 0.0 0.0 0.00 0.00 0.00 84 1014.4
20260508062203 62 339 0.0 0.0 0.00 0.00 0.00 84 1014.6
20260508060703 62 331 0.0 0.0 0.00 0.00 0.00 84 1014.7
20260508060204 62 236 0.0 0.0 0.00 0.00 0.00 84 1014.7
20260508055703 62 305 0.0 0.0 0.00 0.00 0.00 85 1014.5
20260508055203 62 328 0.0 0.0 0.00 0.00 0.00 85 1014.5
20260508054704 62 290 0.0 0.0 0.00 0.00 0.00 85 1014.4
20260508054204 62 289 0.0 0.0 0.00 0.00 0.00 85 1014.3
20260508053703 62 289 0.0 0.0 0.00 0.00 0.00 85 1013.8
20260508053203 62 298 0.0 0.0 0.00 0.00 0.00 85 1013.8
20260508052704 62 297 0.0 0.0 0.00 0.00 0.00 84 1014.1
20260508052203 62 303 0.0 0.0 0.00 0.00 0.00 84 1014.0
20260508051704 62 11 0.0 0.0 0.00 0.00 0.00 84 1014.0
20260508051203 62 355 0.0 0.0 0.00 0.00 0.00 84 1014.1
20260508050703 62 355 0.0 0.0 0.00 0.00 0.00 84 1013.5
20260508050204 62 350 0.0 1.0 0.00 0.00 0.00 84 1013.7
20260508045703 62 41 0.0 0.0 0.00 0.00 0.00 84 1014.0
20260508045203 62 41 0.0 0.0 0.00 0.00 0.00 84 1013.8
20260508044703 62 301 0.0 0.0 0.00 0.00 0.00 83 1013.8
20260508044204 62 301 0.0 0.0 0.00 0.00 0.00 83 1013.9
20260508043703 62 301 0.0 0.0 0.00 0.00 0.00 83 1014.0
20260508043203 63 301 0.0 0.0 0.00 0.00 0.00 83 1014.1
20260508042703 63 299 0.0 0.0 0.00 0.00 0.00 82 1014.4
20260508042204 63 299 0.0 0.0 0.00 0.00 0.00 82 1014.5
20260508041703 63 279 0.0 0.0 0.00 0.00 0.00 82 1014.7
20260508040704 63 287 0.0 0.0 0.00 0.00 0.00 82 1015.0
20260508035704 63 266 0.0 0.0 0.00 0.00 0.00 82 1015.2
20260508034204 63 204 0.0 0.0 0.00 0.00 0.00 82 1015.4
20260508033704 63 313 0.0 0.0 0.00 0.00 0.00 82 1015.3
20260508033203 63 316 0.0 0.0 0.00 0.00 0.00 82 1015.0
20260508032703 63 322 0.0 0.0 0.00 0.00 0.00 82 1014.7
20260508031704 63 340 0.0 0.0 0.00 0.00 0.00 82 1014.4
20260508031204 63 11 0.0 0.0 0.00 0.00 0.00 81 1014.5
20260508030704 63 11 0.0 0.0 0.00 0.00 0.00 81 1014.5
20260508030203 63 11 0.0 0.0 0.00 0.00 0.00 81 1014.3
20260508025203 63 12 0.0 0.0 0.00 0.00 0.00 81 1013.6
20260508024203 63 12 0.0 0.0 0.00 0.00 0.00 81 1013.4
20260508023704 63 12 0.0 0.0 0.00 0.00 0.00 81 1013.2
20260508023204 63 11 0.0 0.0 0.00 0.00 0.00 81 1013.1
20260508022703 63 11 0.0 0.0 0.00 0.00 0.00 80 1013.1
20260508021704 63 39 0.0 0.0 0.00 0.00 0.00 80 1013.0
20260508021203 63 39 0.0 0.0 0.00 0.00 0.00 80 1013.2
20260508020704 63 39 0.0 0.0 0.00 0.00 0.00 79 1013.6
20260508020204 63 39 0.0 0.0 0.00 0.00 0.00 79 1013.7
20260508015703 64 36 0.0 0.0 0.00 0.00 0.00 79 1013.7
20260508015203 64 26 0.0 0.0 0.00 0.00 0.00 79 1013.4
20260508014703 64 342 0.0 0.0 0.00 0.00 0.00 78 1013.4
20260508014203 64 305 0.0 1.0 0.00 0.00 0.00 79 1014.2
20260508013703 64 317 0.0 0.0 0.00 0.00 0.00 79 1013.6
20260508012703 64 358 0.0 1.0 0.00 0.00 0.00 78 1012.9
20260508012203 64 17 0.0 0.0 0.00 0.00 0.00 78 1012.8
20260508011703 64 19 0.0 0.0 0.00 0.00 0.00 77 1013.1
20260508011204 64 19 0.0 0.0 0.00 0.00 0.00 76 1013.2
20260508010704 65 18 0.0 0.0 0.00 0.00 0.00 76 1013.2
20260508010203 65 18 0.0 0.0 0.00 0.00 0.00 76 1013.4
20260508005703 65 17 0.0 0.0 0.00 0.00 0.00 75 1013.5
20260508005204 65 51 0.0 0.0 0.00 0.00 0.00 75 1013.6
20260508004704 65 38 0.0 0.0 0.00 0.00 0.00 75 1013.7
20260508004203 65 42 0.0 0.0 0.00 0.00 0.00 74 1014.1
20260508003203 66 28 0.0 0.0 0.00 0.00 0.00 73 1014.3
20260508002703 66 29 0.0 0.0 0.00 0.00 0.00 72 1014.6
20260508002203 66 13 0.0 0.0 0.00 0.00 0.00 72 1014.7
20260508001703 66 14 0.0 0.0 0.00 0.00 0.00 72 1014.5
20260508001203 66 293 0.0 0.0 0.00 0.00 0.00 72 1014.2
20260508000703 66 276 0.0 0.0 0.00 0.00 0.00 71 1014.3
20260508000204 67 322 0.0 0.0 0.00 0.00 0.00 71 1014.4
20260507235203 67 359 0.0 0.0 0.00 0.00 0.00 70 1014.5
20260507234703 67 355 0.0 0.0 0.00 0.00 0.00 70 1014.7
20260507233703 67 11 0.0 0.0 0.00 0.00 0.00 70 1014.6
20260507233203 67 306 0.0 0.0 0.00 0.00 0.00 71 1014.5
20260507232703 67 301 0.0 2.0 0.00 0.00 0.00 71 1014.5
20260507232204 67 339 1.0 5.0 0.00 0.00 0.00 71 1014.3
20260507231704 67 21 0.0 3.0 0.00 0.00 0.00 70 1014.5
20260507231204 67 14 0.0 2.0 0.00 0.00 0.00 70 1014.7
20260507230703 67 12 0.0 0.0 0.00 0.00 0.00 70 1014.6
20260507230203 68 314 0.0 1.0 0.00 0.00 0.00 71 1014.8
20260507225203 67 342 1.0 6.0 0.00 0.00 0.00 70 1015.1
20260507224703 67 101 0.0 1.0 0.00 0.00 0.00 70 1015.2
20260507223703 67 325 0.0 3.0 0.00 0.00 0.00 69 1015.3
20260507223204 67 326 2.0 5.0 0.00 0.00 0.00 69 1015.1
20260507222703 68 322 0.0 1.0 0.00 0.00 0.00 69 1015.2
20260507222203 68 305 0.0 3.0 0.00 0.00 0.00 69 1015.1